When you browse on this site, cookies collect data to enhance your experience and personalize the content and advertising you see.
Visit our Privacy Policy to learn more. By continuing to use the site, you agree to this use of cookies and data.
  • In Hungary
  • List of Countries
  • For 7 days
  • Water Temperature
  • Weather Map
  • News
  • Weather Widgets
  • user-avatar
    Login

    Hourly Weather Luganskoe

    Today, 16 October, Wednesday

    Time Temperature Precipitation Wind Pressure Humidity
    00:00 +11°C° 0 mm 3 mps 744 mmHg 84%
    01:00 +11°C° 0 mm 4 mps 745 mmHg 83%
    02:00 +10°C° 0 mm 4 mps 745 mmHg 83%
    03:00 +8°C° 0 mm 4 mps 746 mmHg 82%
    04:00 +7°C° 0 mm 4 mps 746 mmHg 82%
    05:00 +7°C° 0 mm 4 mps 747 mmHg 82%
    06:00 +6°C° 0 mm 4 mps 747 mmHg 82%
    07:00 +6°C° 0 mm 4 mps 748 mmHg 78%
    08:00 +6°C° 0 mm 4 mps 748 mmHg 74%
    09:00 +7°C° 0 mm 5 mps 749 mmHg 69%
    10:00 +7°C° 0 mm 4 mps 749 mmHg 65%
    11:00 +8°C° 0 mm 4 mps 749 mmHg 61%
    12:00 +8°C° 0 mm 4 mps 750 mmHg 57%
    13:00 +8°C° 0 mm 4 mps 750 mmHg 54%
    14:00 +10°C° 0 mm 3 mps 750 mmHg 52%
    15:00 +10°C° 0 mm 3 mps 750 mmHg 47%
    16:00 +9°C° 0 mm 3 mps 750 mmHg 50%
    17:00 +9°C° 0 mm 2 mps 750 mmHg 53%
    18:00 +8°C° 0 mm 2 mps 750 mmHg 55%
    19:00 +7°C° 0 mm 2 mps 751 mmHg 56%
    20:00 +7°C° 0 mm 3 mps 751 mmHg 57%
    21:00 +5°C° 0 mm 3 mps 751 mmHg 57%
    22:00 +5°C° 0 mm 3 mps 751 mmHg 59%
    23:00 +5°C° 0 mm 3 mps 751 mmHg 61%

    Tomorrow, 17 October, Thursday

    Time Temperature Precipitation Wind Pressure Humidity
    00:00 +4°C° 0 mm 3 mps 751 mmHg 63%
    01:00 +5°C° 0 mm 2 mps 751 mmHg 64%
    02:00 +5°C° 0 mm 2 mps 751 mmHg 65%
    03:00 +5°C° 0 mm 2 mps 752 mmHg 67%
    04:00 +5°C° 0 mm 2 mps 751 mmHg 68%
    05:00 +3°C° 0 mm 3 mps 751 mmHg 69%
    06:00 +3°C° 0 mm 3 mps 751 mmHg 70%
    07:00 +4°C° 0 mm 3 mps 751 mmHg 66%
    08:00 +5°C° 0 mm 3 mps 751 mmHg 62%
    09:00 +7°C° 0 mm 3 mps 751 mmHg 58%
    10:00 +7°C° 0 mm 4 mps 751 mmHg 54%
    11:00 +10°C° 0 mm 4 mps 751 mmHg 50%
    12:00 +11°C° 0 mm 4 mps 750 mmHg 45%
    13:00 +11°C° 0 mm 4 mps 750 mmHg 44%
    14:00 +11°C° 0 mm 4 mps 750 mmHg 43%
    15:00 +12°C° 0 mm 5 mps 749 mmHg 41%
    16:00 +11°C° 0 mm 4 mps 749 mmHg 44%
    17:00 +10°C° 0 mm 4 mps 749 mmHg 47%
    18:00 +9°C° 0 mm 3 mps 748 mmHg 50%
    19:00 +9°C° 0 mm 3 mps 748 mmHg 52%
    20:00 +8°C° 0 mm 3 mps 748 mmHg 54%
    21:00 +7°C° 0 mm 4 mps 748 mmHg 56%
    22:00 +7°C° 0 mm 4 mps 747 mmHg 59%
    23:00 +7°C° 0 mm 4 mps 747 mmHg 62%

    Day after tomorrow, 18 October, Friday

    Time Temperature Precipitation Wind Pressure Humidity
    00:00 +7°C° 0 mm 4 mps 747 mmHg 65%
    01:00 +7°C° 0 mm 4 mps 746 mmHg 67%
    02:00 +7°C° 0 mm 4 mps 746 mmHg 69%
    03:00 +7°C° 0 mm 4 mps 746 mmHg 71%
    04:00 +7°C° 0 mm 4 mps 746 mmHg 73%
    05:00 +6°C° 0 mm 4 mps 745 mmHg 74%
    06:00 +6°C° 0 mm 4 mps 745 mmHg 76%
    07:00 +8°C° 0 mm 4 mps 745 mmHg 73%
    08:00 +10°C° 0 mm 4 mps 745 mmHg 71%
    09:00 +10°C° 0 mm 5 mps 744 mmHg 68%
    10:00 +13°C° 0 mm 5 mps 744 mmHg 65%
    11:00 +14°C° 0 mm 5 mps 744 mmHg 62%
    12:00 +15°C° 0 mm 5 mps 744 mmHg 59%
    13:00 +16°C° 0 mm 5 mps 743 mmHg 58%
    14:00 +16°C° 0 mm 5 mps 743 mmHg 57%
    15:00 +16°C° 0 mm 5 mps 743 mmHg 57%
    16:00 +15°C° 0 mm 4 mps 743 mmHg 62%
    17:00 +14°C° 0 mm 4 mps 743 mmHg 68%
    18:00 +13°C° 0 mm 3 mps 743 mmHg 73%
    19:00 +13°C° 0 mm 3 mps 743 mmHg 76%
    20:00 +12°C° 0 mm 3 mps 743 mmHg 78%
    21:00 +12°C° 0 mm 3 mps 743 mmHg 81%
    22:00 +11°C° 0 mm 3 mps 743 mmHg 83%
    23:00 +11°C° 0 mm 3 mps 743 mmHg 84%

    19 October, Saturday

    Time Temperature Precipitation Wind Pressure Humidity
    00:00 +10°C° 0 mm 3 mps 743 mmHg 86%
    01:00 +10°C° 0 mm 3 mps 743 mmHg 87%
    02:00 +10°C° 0 mm 3 mps 743 mmHg 88%
    03:00 +10°C° 0 mm 3 mps 743 mmHg 89%
    04:00 +9°C° 0 mm 3 mps 743 mmHg 89%
    05:00 +9°C° 0 mm 3 mps 744 mmHg 89%
    06:00 +9°C° 0 mm 3 mps 744 mmHg 89%
    07:00 +10°C° 0 mm 3 mps 744 mmHg 83%
    08:00 +11°C° 0 mm 3 mps 744 mmHg 78%
    09:00 +12°C° 0 mm 3 mps 745 mmHg 72%
    10:00 +12°C° 0 mm 3 mps 745 mmHg 67%
    11:00 +13°C° 0 mm 3 mps 745 mmHg 62%
    12:00 +14°C° 0 mm 3 mps 746 mmHg 57%
    13:00 +14°C° 0 mm 3 mps 746 mmHg 57%
    14:00 +14°C° 0 mm 3 mps 746 mmHg 56%
    15:00 +15°C° 0 mm 2 mps 746 mmHg 56%
    16:00 +14°C° 0 mm 2 mps 746 mmHg 60%
    17:00 +13°C° 0 mm 2 mps 746 mmHg 64%
    18:00 +12°C° 0 mm 2 mps 746 mmHg 68%
    19:00 +12°C° 0 mm 2 mps 747 mmHg 71%
    20:00 +12°C° 0 mm 2 mps 747 mmHg 75%
    21:00 +10°C° 0 mm 2 mps 747 mmHg 78%
    22:00 +10°C° 0 mm 2 mps 747 mmHg 81%
    23:00 +10°C° 0 mm 1 mps 748 mmHg 84%

    20 October, Sunday

    Time Temperature Precipitation Wind Pressure Humidity
    00:00 +10°C° 0 mm 1 mps 748 mmHg 87%
    01:00 +10°C° 0 mm 1 mps 748 mmHg 87%
    02:00 +9°C° 0 mm 0 mps 748 mmHg 87%
    03:00 +9°C° 0 mm 0 mps 748 mmHg 87%
    04:00 +9°C° 0 mm 0 mps 749 mmHg 87%
    05:00 +10°C° 0 mm 1 mps 749 mmHg 86%
    06:00 +10°C° 0 mm 1 mps 749 mmHg 85%
    07:00 +10°C° 0 mm 1 mps 749 mmHg 84%
    08:00 +11°C° 0 mm 1 mps 750 mmHg 83%
    09:00 +10°C° 0 mm 2 mps 750 mmHg 82%
    10:00 +10°C° 0 mm 2 mps 750 mmHg 80%
    11:00 +12°C° 0 mm 2 mps 750 mmHg 77%
    12:00 +12°C° 0 mm 2 mps 750 mmHg 75%
    13:00 +12°C° 0 mm 1 mps 750 mmHg 73%
    14:00 +13°C° 0 mm 1 mps 750 mmHg 71%
    15:00 +13°C° 0 mm 1 mps 750 mmHg 69%
    16:00 +12°C° 0 mm 1 mps 750 mmHg 73%
    17:00 +11°C° 0 mm 1 mps 750 mmHg 77%
    18:00 +11°C° 0 mm 1 mps 750 mmHg 80%
    19:00 +10°C° 0 mm 1 mps 751 mmHg 81%
    20:00 +10°C° 0 mm 1 mps 751 mmHg 81%
    21:00 +10°C° 0 mm 1 mps 751 mmHg 82%
    22:00 +9°C° 0 mm 2 mps 751 mmHg 83%
    23:00 +8°C° 0 mm 2 mps 751 mmHg 83%

    21 October, Monday

    Time Temperature Precipitation Wind Pressure Humidity
    00:00 +8°C° 0 mm 2 mps 751 mmHg 84%
    01:00 +8°C° 0 mm 2 mps 751 mmHg 84%
    02:00 +8°C° 0 mm 2 mps 751 mmHg 85%
    03:00 +8°C° 0 mm 2 mps 751 mmHg 86%
    04:00 +7°C° 0 mm 2 mps 751 mmHg 86%
    05:00 +7°C° 0 mm 2 mps 751 mmHg 87%
    06:00 +7°C° 0 mm 2 mps 751 mmHg 88%
    07:00 +8°C° 0 mm 2 mps 751 mmHg 83%
    08:00 +9°C° 0 mm 2 mps 751 mmHg 79%
    09:00 +10°C° 0 mm 2 mps 751 mmHg 75%
    10:00 +13°C° 0 mm 2 mps 751 mmHg 71%
    11:00 +13°C° 0 mm 3 mps 751 mmHg 66%
    12:00 +14°C° 0 mm 3 mps 751 mmHg 61%
    13:00 +14°C° 0 mm 3 mps 750 mmHg 60%
    14:00 +16°C° 0 mm 3 mps 750 mmHg 60%
    15:00 +16°C° 0 mm 3 mps 750 mmHg 59%
    16:00 +14°C° 0 mm 3 mps 750 mmHg 63%
    17:00 +13°C° 0 mm 3 mps 749 mmHg 67%
    18:00 +12°C° 0 mm 3 mps 749 mmHg 71%
    19:00 +12°C° 0 mm 3 mps 749 mmHg 73%
    20:00 +11°C° 0 mm 3 mps 749 mmHg 74%
    21:00 +11°C° 0 mm 3 mps 749 mmHg 76%
    22:00 +11°C° 0 mm 4 mps 748 mmHg 76%
    23:00 +11°C° 0 mm 4 mps 748 mmHg 76%
    Show more